McCall, ID

10:59 AM MDT on April 30, 2017 (GMT -0600)
McCall

Weather History for KMYL - October, 2012

Change the Weather History Date:

Sunday, October 14, 2012

  Actual Average Record
Temperature  
Mean Temperature 49 °F 40 °F  
Max Temperature 62 °F 56 °F 77 °F (1991)
Min Temperature 36 °F 25 °F 13 °F (1986)
Degree Days  
Heating Degree Days 16 25  
Month to date heating degree days 275 315  
Since 1 July heating degree days 599 1080  
Cooling Degree Days 0 0  
Month to date cooling degree days 0 0  
Year to date cooling degree days 172 25  
Moisture  
Dew Point 38 °F    
Average Humidity 71    
Maximum Humidity 100    
Minimum Humidity 42    
Precipitation  
Precipitation 0.00 in 0.04 in 1.25 in (1962)
Month to date precipitation 0.09 0.48  
Year to date precipitation 18.40 14.40  
Sea Level Pressure  
Sea Level Pressure 30.21 in    
Wind  
Wind Speed 3 mph (SE)    
Max Wind Speed 16 mph    
Max Gust Speed 20 mph    
Visibility 10 miles    
Events      
T = Trace of Precipitation, MM = Missing Value Source: NWS Daily Summary

Daily Weather History Graph

Daily Weather History Graph

Search for Another Location

Airport or City:

Trip Planner

Search our weather history database for the weather conditions in past years. The results will help you decide how hot, cold, wet, or windy it might be!

Date:

Astronomy

Oct. 14, 2012 Rise Set
Actual Time 7:59 AM MDT 7:00 PM MDT
Civil Twilight 7:29 AM MDT 7:29 PM MDT
Nautical Twilight 6:55 AM MDT 8:03 PM MDT
Astronomical Twilight 6:21 AM MDT 8:37 PM MDT
Moon 7:03 AM MDT (10/14) 6:22 PM MDT (10/14)
Length of Visible Light 11h 59m
Length of Day
11h 00m
Waning Crescent, 1% of the Moon is Illuminated
Oct 14
Waning Crescent
Oct 15
New
Oct 21
First Quarter
Oct 29
Full
Nov 6
Last Quarter

Hourly Weather History & Observations

Time (MDT) Temp. Windchill Dew Point Humidity Pressure Visibility Wind Dir Wind Speed Gust Speed Precip Events Conditions
12:51 AM 39.9 °F - 37.9 °F 93% 30.28 in 10.0 mi Calm Calm - N/A   Clear
1:51 AM 37.9 °F 35.5 °F 35.1 °F 89% 30.30 in 10.0 mi NE 3.5 mph - N/A   Partly Cloudy
2:51 AM 39.9 °F - 37.9 °F 93% 30.29 in 10.0 mi Calm Calm - N/A   Overcast
3:51 AM 42.1 °F - 39.0 °F 89% 30.30 in 10.0 mi Calm Calm - N/A   Overcast
4:51 AM 42.1 °F - 39.0 °F 89% 30.28 in 10.0 mi Calm Calm - N/A   Overcast
5:51 AM 42.1 °F - 39.0 °F 89% 30.28 in 10.0 mi Calm Calm - N/A   Overcast
6:51 AM 37.9 °F 35.5 °F 37.0 °F 97% 30.30 in 10.0 mi ENE 3.5 mph - N/A   Clear
7:51 AM 37.0 °F - 35.1 °F 93% 30.31 in 10.0 mi Calm Calm - N/A   Clear
8:51 AM 36.0 °F - 35.1 °F 97% 30.32 in 10.0 mi Calm Calm - N/A   Clear
9:51 AM 42.1 °F - 37.9 °F 85% 30.30 in 10.0 mi Calm Calm - N/A   Clear
10:51 AM 48.0 °F - 41.0 °F 77% 30.28 in 10.0 mi Calm Calm - N/A   Clear
11:51 AM 55.0 °F - 39.9 °F 57% 30.25 in 10.0 mi SSE 9.2 mph 16.1 mph N/A   Clear
12:51 PM 57.9 °F - 39.9 °F 51% 30.24 in 10.0 mi South 9.2 mph - N/A   Partly Cloudy
1:51 PM 60.1 °F - 39.0 °F 46% 30.21 in 10.0 mi South 10.4 mph - N/A   Mostly Cloudy
2:51 PM 60.1 °F - 39.0 °F 46% 30.17 in 10.0 mi South 12.7 mph 16.1 mph N/A   Scattered Clouds
3:51 PM 60.1 °F - 37.9 °F 44% 30.16 in 10.0 mi South 11.5 mph - N/A   Scattered Clouds
4:51 PM 60.1 °F - 39.0 °F 46% 30.15 in 10.0 mi South 8.1 mph - N/A   Clear
5:51 PM 59.0 °F - 39.0 °F 48% 30.13 in 10.0 mi South 5.8 mph - N/A   Clear
6:51 PM 55.0 °F - 39.0 °F 55% 30.13 in 10.0 mi Calm Calm - N/A   Clear
7:51 PM 53.1 °F - 39.0 °F 59% 30.13 in 10.0 mi Calm Calm - N/A   Clear
8:51 PM 51.1 °F - 39.0 °F 63% 30.13 in 10.0 mi Calm Calm - N/A   Clear
9:51 PM 50.0 °F - 39.9 °F 68% 30.09 in 10.0 mi Calm Calm - N/A   Clear
10:51 PM 48.9 °F - 39.9 °F 71% 30.06 in 10.0 mi Calm Calm - N/A   Clear
11:51 PM 46.0 °F 44.8 °F 37.9 °F 73% 30.03 in 10.0 mi NE 3.5 mph - N/A   Clear